(計算時間: 0.047秒, 共找到 88968 筆資料,顯示第 201 到 300 筆)
可用欄位參考
GUID date humidity temperature pm25 geox geoy
54dc1e06-61ac-489f-a77f-0c3cd38a10d1 2015-07-27 16:21:00 47.333333333333 28.916666666667 1.23 120.218 23.006
54dc1e06-61ac-489f-a77f-0c3cd38a10d1 2015-07-27 16:22:00 50.166666666667 28.916666666667 0.7575 120.218 23.006
54dc1e06-61ac-489f-a77f-0c3cd38a10d1 2015-07-27 16:23:00 47.916666666667 28.416666666667 1.3208333333333 120.218 23.006
54dc1e06-61ac-489f-a77f-0c3cd38a10d1 2015-07-27 16:24:00 48.083333333333 29.083333333333 3.83 120.218 23.006
54dc1e06-61ac-489f-a77f-0c3cd38a10d1 2015-07-27 16:25:00 48.25 28.666666666667 0.55666666666667 120.218 23.006
54dc1e06-61ac-489f-a77f-0c3cd38a10d1 2015-07-27 16:26:00 48.416666666667 29.166666666667 2.1366666666667 120.218 23.006
54dc1e06-61ac-489f-a77f-0c3cd38a10d1 2015-07-27 16:27:00 49.416666666667 28.666666666667 0.26666666666667 120.218 23.006
54dc1e06-61ac-489f-a77f-0c3cd38a10d1 2015-07-27 16:28:00 48.416666666667 28.666666666667 0.67166666666667 120.218 23.006
54dc1e06-61ac-489f-a77f-0c3cd38a10d1 2015-07-27 16:29:00 49.583333333333 28.416666666667 1.9175 120.218 23.006
54dc1e06-61ac-489f-a77f-0c3cd38a10d1 2015-07-27 16:30:00 47.75 28.5 0.37 120.218 23.006
54dc1e06-61ac-489f-a77f-0c3cd38a10d1 2015-07-27 16:31:00 48.166666666667 29.166666666667 2.7858333333333 120.218 23.006
54dc1e06-61ac-489f-a77f-0c3cd38a10d1 2015-07-27 16:32:00 46.75 28.916666666667 2.3966666666667 120.218 23.006
54dc1e06-61ac-489f-a77f-0c3cd38a10d1 2015-07-27 16:33:00 48.583333333333 28.5 0.18833333333333 120.218 23.006
54dc1e06-61ac-489f-a77f-0c3cd38a10d1 2015-07-27 16:34:00 47.083333333333 28.583333333333 0 120.218 23.006
54dc1e06-61ac-489f-a77f-0c3cd38a10d1 2015-07-27 16:35:00 47.166666666667 29.083333333333 0.36666666666667 120.218 23.006
54dc1e06-61ac-489f-a77f-0c3cd38a10d1 2015-07-27 16:36:00 49 28.416666666667 0.63416666666667 120.218 23.006
54dc1e06-61ac-489f-a77f-0c3cd38a10d1 2015-07-27 16:37:00 47.25 28.25 2.16 120.218 23.006
54dc1e06-61ac-489f-a77f-0c3cd38a10d1 2015-07-27 16:38:00 48.25 28.416666666667 0.24 120.218 23.006
54dc1e06-61ac-489f-a77f-0c3cd38a10d1 2015-07-27 16:39:00 48.5 28.25 0.83666666666667 120.218 23.006
54dc1e06-61ac-489f-a77f-0c3cd38a10d1 2015-07-27 16:40:00 48.333333333333 28.25 2.385 120.218 23.006
54dc1e06-61ac-489f-a77f-0c3cd38a10d1 2015-07-27 16:41:00 46.833333333333 28.416666666667 2.8441666666667 120.218 23.006
54dc1e06-61ac-489f-a77f-0c3cd38a10d1 2015-07-27 16:42:00 46.5 28.75 0 120.218 23.006
54dc1e06-61ac-489f-a77f-0c3cd38a10d1 2015-07-27 16:43:00 49 28.583333333333 0.068333333333333 120.218 23.006
54dc1e06-61ac-489f-a77f-0c3cd38a10d1 2015-07-27 16:44:00 47.916666666667 28.083333333333 0.82166666666667 120.218 23.006
54dc1e06-61ac-489f-a77f-0c3cd38a10d1 2015-07-27 16:45:00 48.083333333333 28.083333333333 2.4583333333333 120.218 23.006
54dc1e06-61ac-489f-a77f-0c3cd38a10d1 2015-07-27 16:46:00 48.083333333333 28.333333333333 0.76666666666667 120.218 23.006
54dc1e06-61ac-489f-a77f-0c3cd38a10d1 2015-07-27 16:47:00 48.75 28.25 1.8283333333333 120.218 23.006
54dc1e06-61ac-489f-a77f-0c3cd38a10d1 2015-07-27 16:48:00 48.083333333333 28.166666666667 0.57333333333333 120.218 23.006
54dc1e06-61ac-489f-a77f-0c3cd38a10d1 2015-07-27 16:49:00 49.833333333333 28.166666666667 1.7891666666667 120.218 23.006
54dc1e06-61ac-489f-a77f-0c3cd38a10d1 2015-07-27 16:50:00 48.75 28.083333333333 1.575 120.218 23.006
54dc1e06-61ac-489f-a77f-0c3cd38a10d1 2015-07-27 16:51:00 50.916666666667 28.166666666667 0.33333333333333 120.218 23.006
54dc1e06-61ac-489f-a77f-0c3cd38a10d1 2015-07-27 16:52:00 49.666666666667 27.916666666667 0.65166666666667 120.218 23.006
54dc1e06-61ac-489f-a77f-0c3cd38a10d1 2015-07-27 16:53:00 49.333333333333 28.583333333333 0.19833333333333 120.218 23.006
54dc1e06-61ac-489f-a77f-0c3cd38a10d1 2015-07-27 16:54:00 50.166666666667 28.333333333333 0.34416666666667 120.218 23.006
54dc1e06-61ac-489f-a77f-0c3cd38a10d1 2015-07-27 16:55:00 50.166666666667 28.416666666667 1.2375 120.218 23.006
54dc1e06-61ac-489f-a77f-0c3cd38a10d1 2015-07-27 16:56:00 49.166666666667 28.333333333333 0 120.218 23.006
54dc1e06-61ac-489f-a77f-0c3cd38a10d1 2015-07-27 16:57:00 50.583333333333 28 0 120.218 23.006
54dc1e06-61ac-489f-a77f-0c3cd38a10d1 2015-07-27 16:58:00 48.75 27.916666666667 2.9658333333333 120.218 23.006
54dc1e06-61ac-489f-a77f-0c3cd38a10d1 2015-07-27 16:59:00 50 28.166666666667 0 120.218 23.006
54dc1e06-61ac-489f-a77f-0c3cd38a10d1 2015-07-27 17:00:00 49.666666666667 27.916666666667 3.2933333333333 120.218 23.006
54dc1e06-61ac-489f-a77f-0c3cd38a10d1 2015-07-27 17:01:00 50.583333333333 27.75 1.8933333333333 120.218 23.006
54dc1e06-61ac-489f-a77f-0c3cd38a10d1 2015-07-27 17:02:00 49.083333333333 27.75 0.72666666666667 120.218 23.006
54dc1e06-61ac-489f-a77f-0c3cd38a10d1 2015-07-27 17:03:00 49.75 28.75 1.0633333333333 120.218 23.006
54dc1e06-61ac-489f-a77f-0c3cd38a10d1 2015-07-27 17:04:00 49.833333333333 28.166666666667 1.3608333333333 120.218 23.006
54dc1e06-61ac-489f-a77f-0c3cd38a10d1 2015-07-27 17:05:00 49.75 28.416666666667 1.5808333333333 120.218 23.006
54dc1e06-61ac-489f-a77f-0c3cd38a10d1 2015-07-27 17:06:00 50 28.166666666667 1.2983333333333 120.218 23.006
54dc1e06-61ac-489f-a77f-0c3cd38a10d1 2015-07-27 17:07:00 49.833333333333 27.916666666667 1.0466666666667 120.218 23.006
54dc1e06-61ac-489f-a77f-0c3cd38a10d1 2015-07-27 17:08:00 49.583333333333 28.333333333333 1.6766666666667 120.218 23.006
54dc1e06-61ac-489f-a77f-0c3cd38a10d1 2015-07-27 17:09:00 50.416666666667 28 0.225 120.218 23.006
54dc1e06-61ac-489f-a77f-0c3cd38a10d1 2015-07-27 17:10:00 49.916666666667 28.833333333333 1.6491666666667 120.218 23.006
54dc1e06-61ac-489f-a77f-0c3cd38a10d1 2015-07-27 17:11:00 47.833333333333 28.25 0 120.218 23.006
54dc1e06-61ac-489f-a77f-0c3cd38a10d1 2015-07-27 17:12:00 48.25 28.5 3.1233333333333 120.218 23.006
54dc1e06-61ac-489f-a77f-0c3cd38a10d1 2015-07-27 17:13:00 48.416666666667 28.083333333333 0.18666666666667 120.218 23.006
54dc1e06-61ac-489f-a77f-0c3cd38a10d1 2015-07-27 17:14:00 50.583333333333 28.5 0.070833333333333 120.218 23.006
54dc1e06-61ac-489f-a77f-0c3cd38a10d1 2015-07-27 17:15:00 50.333333333333 28.416666666667 0.98833333333333 120.218 23.006
54dc1e06-61ac-489f-a77f-0c3cd38a10d1 2015-07-27 17:16:00 48.083333333333 28.333333333333 1.085 120.218 23.006
54dc1e06-61ac-489f-a77f-0c3cd38a10d1 2015-07-27 17:17:00 48.583333333333 28.583333333333 1.3816666666667 120.218 23.006
54dc1e06-61ac-489f-a77f-0c3cd38a10d1 2015-07-27 17:18:00 49.166666666667 28.083333333333 1.8725 120.218 23.006
54dc1e06-61ac-489f-a77f-0c3cd38a10d1 2015-07-27 17:19:00 48.666666666667 28.333333333333 1.18 120.218 23.006
54dc1e06-61ac-489f-a77f-0c3cd38a10d1 2015-07-27 17:20:00 49.666666666667 28.333333333333 0 120.218 23.006
54dc1e06-61ac-489f-a77f-0c3cd38a10d1 2015-07-27 17:21:00 49.583333333333 28.916666666667 0.25083333333333 120.218 23.006
54dc1e06-61ac-489f-a77f-0c3cd38a10d1 2015-07-27 17:22:00 48.1 28.4 2.498 120.218 23.006
54dc1e06-61ac-489f-a77f-0c3cd38a10d1 2015-07-27 17:23:00 48.3 29.1 0 120.218 23.006
54dc1e06-61ac-489f-a77f-0c3cd38a10d1 2015-07-27 17:24:00 47.833333333333 27.916666666667 0.75916666666667 120.218 23.006
54dc1e06-61ac-489f-a77f-0c3cd38a10d1 2015-07-27 17:25:00 48.5 28.583333333333 0.22083333333333 120.218 23.006
54dc1e06-61ac-489f-a77f-0c3cd38a10d1 2015-07-27 17:26:00 49.583333333333 28.75 1.335 120.218 23.006
54dc1e06-61ac-489f-a77f-0c3cd38a10d1 2015-07-27 17:27:00 49 27.833333333333 0.2775 120.218 23.006
54dc1e06-61ac-489f-a77f-0c3cd38a10d1 2015-07-27 17:28:00 47.583333333333 28.25 1.9641666666667 120.218 23.006
54dc1e06-61ac-489f-a77f-0c3cd38a10d1 2015-07-27 17:29:00 48.75 28.25 0 120.218 23.006
54dc1e06-61ac-489f-a77f-0c3cd38a10d1 2015-07-27 17:30:00 48.25 29.666666666667 0 120.218 23.006
54dc1e06-61ac-489f-a77f-0c3cd38a10d1 2015-07-27 17:31:00 49 28.25 0.165 120.218 23.006
54dc1e06-61ac-489f-a77f-0c3cd38a10d1 2015-07-27 17:32:00 48.75 29.083333333333 0 120.218 23.006
54dc1e06-61ac-489f-a77f-0c3cd38a10d1 2015-07-27 17:33:00 48.75 28.666666666667 0.8125 120.218 23.006
54dc1e06-61ac-489f-a77f-0c3cd38a10d1 2015-07-27 17:34:00 49.083333333333 28.333333333333 0.2475 120.218 23.006
54dc1e06-61ac-489f-a77f-0c3cd38a10d1 2015-07-27 17:35:00 47.583333333333 29 2.1908333333333 120.218 23.006
54dc1e06-61ac-489f-a77f-0c3cd38a10d1 2015-09-05T12:53:00 42.75 31.5 0 120.218 23.006
54dc1e06-61ac-489f-a77f-0c3cd38a10d1 2015-07-27 17:36:00 48.166666666667 28.416666666667 0 120.218 23.006
54dc1e06-61ac-489f-a77f-0c3cd38a10d1 2015-07-27 17:37:00 48.333333333333 28.25 1.9658333333333 120.218 23.006
54dc1e06-61ac-489f-a77f-0c3cd38a10d1 2015-07-27 17:38:00 49.666666666667 28.333333333333 1.7683333333333 120.218 23.006
54dc1e06-61ac-489f-a77f-0c3cd38a10d1 2015-07-27 17:39:00 47.833333333333 28.75 0.51583333333333 120.218 23.006
54dc1e06-61ac-489f-a77f-0c3cd38a10d1 2015-07-27 17:40:00 48.75 28.333333333333 0 120.218 23.006
54dc1e06-61ac-489f-a77f-0c3cd38a10d1 2015-07-27 17:41:00 47.5 28.5 1.3291666666667 120.218 23.006
54dc1e06-61ac-489f-a77f-0c3cd38a10d1 2015-07-27 17:42:00 50 28.833333333333 0 120.218 23.006
54dc1e06-61ac-489f-a77f-0c3cd38a10d1 2015-07-27 17:43:00 48.166666666667 28.083333333333 1.6841666666667 120.218 23.006
54dc1e06-61ac-489f-a77f-0c3cd38a10d1 2015-07-27 17:44:00 48.666666666667 28.5 0.16 120.218 23.006
54dc1e06-61ac-489f-a77f-0c3cd38a10d1 2015-07-27 17:45:00 49.416666666667 28.25 0.10083333333333 120.218 23.006
54dc1e06-61ac-489f-a77f-0c3cd38a10d1 2015-07-27 17:46:00 47 28.416666666667 0.63166666666667 120.218 23.006
54dc1e06-61ac-489f-a77f-0c3cd38a10d1 2015-07-27 17:47:00 49 29.083333333333 0.64583333333333 120.218 23.006
54dc1e06-61ac-489f-a77f-0c3cd38a10d1 2015-07-27 17:48:00 47.833333333333 28.5 1.6225 120.218 23.006
54dc1e06-61ac-489f-a77f-0c3cd38a10d1 2015-07-27 17:49:00 48.333333333333 29.166666666667 0.66083333333333 120.218 23.006
54dc1e06-61ac-489f-a77f-0c3cd38a10d1 2015-07-27 17:50:00 48.083333333333 28.666666666667 0.535 120.218 23.006
54dc1e06-61ac-489f-a77f-0c3cd38a10d1 2015-07-27 17:51:00 48.25 28.833333333333 0.60083333333333 120.218 23.006
54dc1e06-61ac-489f-a77f-0c3cd38a10d1 2015-07-27 17:52:00 48.583333333333 28.916666666667 1.1475 120.218 23.006
54dc1e06-61ac-489f-a77f-0c3cd38a10d1 2015-07-27 17:53:00 48.083333333333 28.666666666667 4.1658333333333 120.218 23.006
54dc1e06-61ac-489f-a77f-0c3cd38a10d1 2015-07-27 17:54:00 47.833333333333 28.5 0.34583333333333 120.218 23.006
54dc1e06-61ac-489f-a77f-0c3cd38a10d1 2015-07-27 17:55:00 47.583333333333 28.166666666667 0.57833333333333 120.218 23.006
54dc1e06-61ac-489f-a77f-0c3cd38a10d1 2015-07-27 17:56:00 47 28.833333333333 0 120.218 23.006
54dc1e06-61ac-489f-a77f-0c3cd38a10d1 2015-07-27 17:57:00 46.416666666667 28.916666666667 1.9325 120.218 23.006
54dc1e06-61ac-489f-a77f-0c3cd38a10d1 2015-07-27 17:58:00 47.5 29.416666666667 0 120.218 23.006
54dc1e06-61ac-489f-a77f-0c3cd38a10d1 2015-07-27 17:59:00 46.583333333333 28.833333333333 0.31333333333333 120.218 23.006